Concordia, KS

8:57 PM CDT on October 19, 2019 (GMT -0500)
Blosser Municipal

Weather History for KCNK - June, 2019

Change the Weather History Date:

Saturday, June 8, 2019

  Actual Average Record
Temperature  
Mean Temperature 77 °F 71 °F  
Max Temperature 90 °F 82 °F 101 °F (1934)
Min Temperature 64 °F 60 °F 47 °F (2007)
Degree Days  
Heating Degree Days 0 1  
Month to date heating degree days 0 8  
Since 1 June heating degree days 0 8  
Since 1 July heating degree days 5821 5403  
Cooling Degree Days 12 7  
Month to date cooling degree days 94 46  
Year to date cooling degree days 194 135  
Since 1 June cooling degree days 94 46  
Growing Degree Days 27 (Base 50)    
Moisture  
Dew Point 62 °F    
Average Humidity 62    
Maximum Humidity 87    
Minimum Humidity 37    
Precipitation  
Precipitation 0.00 in 0.13 in 2.24 in (1941)
Month to date precipitation 0.13 1.07  
Year to date precipitation 14.72 11.06  
Snow  
Snow 0.00 in 0.00 in T in (1994)
Month to date snowfall 0.0 0.0  
Year to date snowfall 32.3 13.7  
Since 1 July snowfall 48.2 20.2  
Snow Depth 0.00 in    
Sea Level Pressure  
Sea Level Pressure 29.82 in    
Wind  
Wind Speed 10 mph (SSE)    
Max Wind Speed 18 mph    
Max Gust Speed 25 mph    
Visibility 10 miles    
Events      
T = Trace of Precipitation, MM = Missing Value Source: NWS Daily Summary

Daily Weather History Graph

Daily Weather History Graph

Search for Another Location

Airport or City:

Astronomy

Jun. 08, 2019 Rise Set
Actual Time 6:03 AM CDT 8:56 PM CDT
Civil Twilight 5:30 AM CDT 9:28 PM CDT
Nautical Twilight 4:50 AM CDT 10:09 PM CDT
Astronomical Twilight 4:03 AM CDT 10:56 PM CDT
Moon 11:31 AM CDT (6/8) 12:59 AM CDT (6/8)
Length of Visible Light 15h 57m
Length of Day
14h 53m
Waxing Crescent, 33% of the Moon is Illuminated
Jun 8
Waxing Crescent
Jun 10
First Quarter
Jun 17
Full
Jun 25
Last Quarter
Jul 2
New

Hourly Weather History & Observations

Time (CDT) Temp. Heat Index Dew Point Humidity Pressure Visibility Wind Dir Wind Speed Gust Speed Precip Events Conditions
12:55 AM 70.0 °F - 61.0 °F 73% 29.84 in 10.0 mi South 6.9 mph - N/A   Clear
1:55 AM 70.0 °F - 61.0 °F 73% 29.82 in 10.0 mi SSE 5.8 mph - N/A   Clear
2:55 AM 70.0 °F - 60.1 °F 71% 29.82 in 10.0 mi SSE 9.2 mph - N/A   Clear
3:55 AM 70.0 °F - 60.1 °F 71% 29.83 in 10.0 mi SSE 9.2 mph - N/A   Clear
4:55 AM 66.9 °F - 61.0 °F 81% 29.83 in 10.0 mi SSE 5.8 mph - N/A   Clear
5:55 AM 66.0 °F - 61.0 °F 84% 29.85 in 10.0 mi Calm Calm - N/A   Clear
6:55 AM 66.9 °F - 62.1 °F 84% 29.84 in 10.0 mi East 4.6 mph - N/A   Clear
7:55 AM 73.9 °F - 64.0 °F 71% 29.84 in 10.0 mi South 11.5 mph - N/A   Clear
8:55 AM 78.1 °F - 64.0 °F 62% 29.86 in 10.0 mi South 13.8 mph 21.9 mph N/A   Clear
9:55 AM 81.0 °F 82.7 °F 64.9 °F 58% 29.86 in 10.0 mi South 13.8 mph - N/A   Clear
10:55 AM 82.9 °F 84.6 °F 64.9 °F 54% 29.86 in 10.0 mi South 13.8 mph - N/A   Clear
11:55 AM 86.0 °F 86.8 °F 63.0 °F 46% 29.85 in 10.0 mi South 13.8 mph - N/A   Partly Cloudy
12:55 PM 87.1 °F 87.0 °F 61.0 °F 41% 29.83 in 10.0 mi SSE 10.4 mph - N/A   Partly Cloudy
1:55 PM 88.0 °F 87.6 °F 60.1 °F 39% 29.82 in 10.0 mi SE 13.8 mph - N/A   Partly Cloudy
2:55 PM 89.1 °F 88.8 °F 60.1 °F 38% 29.81 in 10.0 mi South 15.0 mph - N/A   Partly Cloudy
3:55 PM 89.1 °F 88.8 °F 60.1 °F 38% 29.79 in 10.0 mi SSE 12.7 mph 19.6 mph N/A   Partly Cloudy
4:55 PM 89.1 °F 88.8 °F 60.1 °F 38% 29.77 in 10.0 mi South 10.4 mph 21.9 mph N/A   Clear
5:55 PM 89.1 °F 88.2 °F 59.0 °F 36% 29.77 in 10.0 mi SSE 12.7 mph - N/A   Clear
6:55 PM 87.1 °F 86.7 °F 60.1 °F 40% 29.77 in 10.0 mi SE 15.0 mph - N/A   Clear
7:55 PM 84.0 °F 84.5 °F 62.1 °F 47% 29.79 in 10.0 mi SE 8.1 mph - N/A   Clear
8:55 PM 79.0 °F - 64.0 °F 60% 29.79 in 10.0 mi SE 6.9 mph - N/A   Clear
9:55 PM 77.0 °F - 64.0 °F 64% 29.81 in 9.0 mi SE 6.9 mph - N/A   Clear
10:55 PM 77.0 °F - 64.0 °F 64% 29.83 in 10.0 mi ESE 5.8 mph - N/A   Clear
11:55 PM 75.9 °F - 63.0 °F 64% 29.86 in 10.0 mi ESE 4.6 mph - N/A   Clear